Simultaneous Nadir Overpasses (SNOs) Predictions

Prediction of SNOs between FY3D and AQUA Satellite Orbit:

Table of predicted SNOs for the next 14.0 days since TLE Epoch: 8/16/2019
Index Date (FY3D) Time (FY3D) Lat,Lon (FY3D) SZA (FY3D ) Date (AQUA) Time (AQUA) Lat,Lon (AQUA) SZA (AQUA ) Distance(km) Time Diff (sec)
1 08/17/2019 22:27:22 68.16, 67.80 92.89 08/17/2019 22:28:02 68.16, 67.83 92.84 1.29 40
2 08/17/2019 23:17:12 -71.10,-120.56 90.22 08/17/2019 23:16:36 -71.11,-120.50 90.21 2.60 36
3 08/20/2019 14:43:44 68.41,-175.99 93.44 08/20/2019 14:44:27 68.41,-176.00 93.40 0.41 43
4 08/20/2019 15:33:36 -71.24, -4.44 89.56 08/20/2019 15:33:03 -71.24, -4.41 89.53 1.04 33
5 08/23/2019 07:00:07 68.60, -59.85 94.06 08/23/2019 07:00:53 68.60, -59.89 94.03 1.99 46
6 08/23/2019 07:49:59 -71.43, 111.77 88.93 08/23/2019 07:49:29 -71.43, 111.76 88.89 0.42 30
7 08/25/2019 23:16:49 67.77, 54.98 95.76 08/25/2019 23:17:37 67.78, 55.01 95.70 1.36 48
8 08/26/2019 00:06:23 -71.56,-132.10 88.22 08/26/2019 00:05:56 -71.56,-132.15 88.18 1.74 27
9 08/28/2019 15:33:11 67.97, 171.11 96.42 08/28/2019 15:34:02 67.97, 171.11 96.36 0.04 51




NCC Satellite Simultaneous Nadir Overpasses (SNOs) Prediction Service
